Location: Pergassaye
(14.8055°N, 3.0211°W)
Time: 08:41:58
(UTC+00:00)

Daily predictions for brighter satellites

Satellite Brightness Start Highest point End
(mag) Time Altitude Azimuth Time Altitude Azimuth Time Altitude Azimuth
Cosmos 1048 Rocket 4.4 18:37:41 10° SSW 18:42:46 70° WNW 18:47:51 10° N
Uosat 12 SS-18 rocket 4.4 18:38:59 10° N 18:43:15 53° ENE 18:48:08 10° SE
Okean 1 Rocket 3.5 18:39:41 10° S 18:44:04 68° W 18:48:25 10° N
Lacrosse 4 Rocket 2.0 18:40:56 10° N 18:45:04 38° ENE 18:49:04 10° SE
STARLINK-1193 3.6 18:42:23 10° NNW 18:45:17 35° NE 18:48:12 10° ESE
STARLINK-1194 3.6 18:42:49 10° NNW 18:45:43 35° NE 18:48:36 10° ESE
STARLINK-1132 3.3 18:43:02 10° NNW 18:46:11 46° NE 18:49:20 10° SE
STARLINK-1177 3.2 18:44:52 10° NNW 18:48:02 50° NE 18:51:13 10° SE
STARLINK-1167 3.2 18:45:58 10° NNW 18:49:09 52° NE 18:52:20 10° SE
STARLINK-1163 3.1 18:48:13 10° NNW 18:51:27 58° NE 18:54:41 10° SE
Delta 168 3.7 18:48:21 10° W 18:52:06 50° SSW 18:57:28 10° SE
Cosmos 494 Rocket 3.9 18:47:18 10° S 18:52:23 74° ESE 18:57:30 10° NNE
Cosmos 1674 4.4 18:52:22 10° NE 18:54:06 13° E 18:55:42 10° ESE
Aurora 2 Rocket 4.2 18:52:05 10° WSW 18:54:32 19° SSW 18:57:24 10° SSE
SL-16 R/B 2.4 18:50:23 10° S 18:55:48 49° ESE 19:01:14 10° NNE
Cosmos 1553 Rocket 3.9 18:51:21 10° S 18:57:28 86° E 19:03:31 10° N
GPS 2-15 Rocket1 3.2 18:56:36 10° WSW 19:01:30 88° SSE 19:05:47 13° ENE
CSL-04 Rocket 3.8 18:58:21 10° SSE 19:03:34 53° ENE 19:08:43 10° N
Atlas Centaur 2 2.8 18:58:14 10° NW 19:03:41 37° NNE 19:07:17 14° E
Cosmos 1452 Rocket 4.2 19:01:52 10° NNE 19:06:32 32° ENE 19:11:10 10° SE
NOAA 11 4.2 19:01:40 10° SSE 19:07:05 89° E 19:12:31 10° NNW
Cosmos 1844 Rocket 3.7 19:02:36 10° NNW 19:08:03 50° WSW 19:13:27 10° S
Ariane Rocket 4.2 19:07:48 14° ESE 19:10:41 21° ENE 19:14:27 10° NNE
CZ-3A R/B 4.4 18:27:42 10° W 19:12:35 58° N 19:19:38 14° ENE
STARLINK-1170 3.8 19:11:11 10° NW 19:14:27 52° SW 19:17:44 10° SSE
Centaur D AC-28 2.2 19:11:11 10° NW 19:15:23 42° NNE 19:17:33 20° E
USA 229 DEB 4.3 19:09:58 10° N 19:17:03 42° ENE 19:23:12 14° SE
USA 229 4.3 19:10:05 10° N 19:17:09 42° ENE 19:23:13 14° SE
NOSS 3-3 (A) 4.5 19:13:18 10° SSE 19:17:58 28° ESE 19:22:20 12° NE
GEOS 3 Rocket 3.5 19:13:33 10° SE 19:18:34 70° ENE 19:23:39 10° NNW
Cosmos 1805 4.3 19:19:42 10° SSW 19:23:28 48° W 19:27:14 10° N
CZ-4 R/B 3.0 19:22:00 10° SSW 19:25:38 35° W 19:29:14 10° NNW
STARLINK-1166 4.4 19:24:33 10° NNW 19:28:17 32° NE 19:29:02 30° ENE
H-2A R/B 2.9 19:27:17 25° ESE 19:28:59 29° ENE 19:33:32 10° NNE
Cosmos 371 Rocket 3.9 19:24:44 10° N 19:29:05 34° ENE 19:30:19 29° ESE
ARGOS Delta rocket 4.2 19:29:20 20° SE 19:32:14 41° ENE 19:36:56 10° N
STARLINK-1156 4.3 19:29:05 10° NNW 19:32:52 34° NE 19:33:20 33° ENE
Meteor 2-5 Rocket 3.9 19:27:37 10° N 19:32:58 47° E 19:37:53 12° SSE
STARLINK-1165 4.2 19:29:26 10° NNW 19:33:17 36° NE 19:33:50 35° ENE
Meteor 2-8 Rocket 4.5 19:28:25 10° S 19:34:34 85° W 19:40:44 10° N
Cosmos 1242 Rocket 3.7 19:34:11 10° NNW 19:37:29 42° W 19:40:50 10° SSW
STARLINK-1148 4.1 19:33:57 10° NNW 19:37:50 40° NE 19:38:07 39° ENE
STARLINK-1169 4.0 19:34:20 10° NNW 19:38:16 42° NE 19:38:37 41° ENE
DMSP B5D2-2 4.4 19:37:53 10° NNE 19:42:43 39° E 19:47:34 10° SSE
STARLINK-1158 3.9 19:38:52 10° NNW 19:42:50 45° NE 19:42:54 45° ENE
STARLINK-1178 3.8 19:39:15 10° NNW 19:43:16 48° NE 19:43:25 48° ENE
IRS-1A Rocket 4.4 19:41:49 29° SE 19:44:21 49° ENE 19:49:45 10° N
HJ-1C 3.5 19:42:53 28° S 19:44:29 72° W 19:47:47 10° NNW
ARGOS 3.7 19:44:57 35° ENE 19:44:57 35° ENE 19:49:38 10° N
Meteor 2-15 4.3 19:41:06 10° S 19:47:05 63° E 19:53:03 10° NNE
H-2A R/B 3.5 19:37:06 10° WNW 19:47:52 26° NNW 19:50:00 19° NNE
STARLINK-1120 3.7 19:44:08 10° NNW 19:48:11 56° NE 19:48:11 56° NE
Cosmos 2278 Rocket 2.1 19:44:24 10° N 19:50:00 61° ENE 19:51:52 40° SE
Meteor 1-24 Rocket 3.6 19:47:06 10° N 19:52:19 51° E 19:52:42 50° E
Lacrosse 5 4.2 19:49:14 10° WNW 19:52:56 20° WSW 19:56:38 10° SSW
STARLINK-1131 3.6 19:49:05 10° NNW 19:52:58 64° NNE 19:52:58 64° NNE
Cosmos 1709 Rocket 4.4 19:49:03 10° NNE 19:53:56 38° ENE 19:53:56 38° ENE
SJ-11-01 4.1 19:52:15 26° SSE 19:54:55 89° E 19:59:36 10° NNW
Cosmos 332 Rocket 4.1 19:51:24 10° N 19:55:30 48° NE 19:55:30 48° NE
STARLINK-1190 3.7 19:54:03 10° NNW 19:57:47 68° N 19:57:47 68° N
CZ-3B Rocket 2.3 19:54:59 10° SW 19:57:56 40° S 19:57:56 40° S
NOSS 3-1 (C) 4.2 19:50:06 10° NNW 19:58:39 89° WSW 20:05:49 18° SSE
CZ-2C R/B 3.0 20:10:01 73° NE 20:10:01 73° NE 20:14:49 10° N
Milstar 3 Cent rocket 4.3 20:03:58 10° WNW 20:13:57 88° SSW 20:23:28 38° ESE
GPS 2-17 Rocket1 3.8 20:16:05 10° WNW 20:19:54 54° W 20:19:54 54° W
Atlas Centaur 2 3.9 20:47:56 10° WNW 20:49:55 22° W 20:49:55 22° W
ATLAS 2AS CENTAUR RB 3.2 20:34:36 10° W 20:51:54 61° WSW 20:51:54 61° WSW
ATLAS 5 CENTAUR R/B 3.3 20:49:52 10° W 20:55:55 74° N 20:58:28 60° NE
H-2A R/B 4.3 21:07:55 20° WSW 21:08:11 20° W 21:12:02 10° NW
